Regional Weather Roundup
Issued by NWS Upton, NY

Current Version | Previous Version | Graphics & Text | Print | Product List | Glossary Off
Versions: 1 2 3 4 5 6 7 8 9 10 11 12 13 14 15 16 17 18 19 20 21 22 23 24 25 26 27 28 29 30 31 32 33 34 35 36 37 38 39 40 41 42 43 44 45 46 47 48 49 50

000
ASUS41 KOKX 262009
RWROKX

REGIONAL WEATHER ROUNDUP
NATIONAL WEATHER SERVICE NEW YORK NY
400 PM EDT MON JUN 26 2017

NOTE: "FAIR" INDICATES FEW OR NO CLOUDS BELOW 12,000 FEET WITH NO
SIGNIFICANT WEATHER AND/OR OBSTRUCTIONS TO VISIBILITY.

NYZ071-072-176-178-NJZ106-104-262100-
NEW YORK CITY METRO AREA

CITY           SKY/WX    TMP DP  RH WIND       PRES   REMARKS
Central Park   PTSUNNY   77  51  40 SW8       30.01S
Bronx Bot Gard   N/A     77  43  29 SW6       30.00R
LaGuardia APRT MOSUNNY   78  50  37 S15G26    29.98S
Kennedy INTL   MOSUNNY   76  54  46 S22       30.01F
Breezy Point     N/A     70 N/A N/A S16         N/A
Newark/Liberty PTSUNNY   81  44  27 W16       29.99S
Teterboro      MOSUNNY   78  46  32 W15       29.97S
$$

NYZ177-179-078>081-262100-
LONG ISLAND NEW YORK

CITY           SKY/WX    TMP DP  RH WIND       PRES   REMARKS
Jones Beach      N/A     72 N/A N/A S10G17      N/A
Matinecock PT  NOT AVBL
Farmingdale    NOT AVBL
MacArthur/ISP  MOSUNNY   76  53  44 S16       29.99F
Shirley        SUNNY     76  53  44 S14G21    30.00F
Mt Sinai Harb    N/A    N/A N/A N/A SW8G14      N/A
Westhampton    SUNNY     76  50  40 SW10G20   30.02F
East Hampton   FAIR      73  54  51 SW14G20   30.00F
Montauk          N/A     75  55  49 SW10G17   30.01F
$$

NYZ052-065-067-262100-
HUDSON VALLEY

CITY           SKY/WX    TMP DP  RH WIND       PRES   REMARKS
White Plains   MOSUNNY   76  48  37 SW8       29.99S
Larchmont Harb   N/A     72 N/A N/A S17         N/A
Croton O-T Hud   N/A     77 N/A N/A W5G12       N/A
Newburgh       MOSUNNY   73  54  49 W9G17     29.99S
Montgomery     PTSUNNY   75  49  39 SW8       29.97F
Poughkeepsie   SUNNY     77  48  35 SW15      29.95F
Albany         PTSUNNY   73  54  51 VRB3      29.96S
$$

NJZ001-105-106-008-010-013-015-019>022-104-262100-
NEW JERSEY

CITY           SKY/WX    TMP DP  RH WIND       PRES   REMARKS
Newark/Liberty PTSUNNY   81  44  27 W16       29.99S
Teterboro      MOSUNNY   78  46  32 W15       29.97S
Caldwell       CLOUDY    79  46  31 W8        29.99F
Somerville     MOSUNNY   78  50  37 VRB5      29.98F
Linden         FAIR      80  44  28 W9G18     29.99F
Perth Amboy      N/A     75 N/A N/A W14         N/A
Sussex         MOSUNNY   76  51  41 VRB5      29.98F
Andover          N/A     74  48  39 VRB6      30.00S
Trenton        MOSUNNY   79  48  33 W10       30.00F
Millville      SUNNY     81  52  36 VRB5G21   30.02F
Atlantic City  MOSUNNY   82  45  27 W14       30.01F
Wrightstown    MOSUNNY   80  49  33 W12       30.00F
Toms River     PTSUNNY   78  54  43 S9        30.02S
Belmar         PTSUNNY   75  52  44 SE10      30.02F
$$

PAZ047>061-062-071-262100-
EASTERN PENNSYLVANIA

CITY           SKY/WX    TMP DP  RH WIND       PRES   REMARKS
Philadelphia   MOSUNNY   80  45  28 SW12      30.02S
Allentown      MOSUNNY   79  48  33 SW10      30.01S
Scranton       MOSUNNY   76  47  35 SW12G20   29.99F
$$

CTZ002-004>006-009-010-012-RIZ004-006-007-MAZ004-011-015-262100-
SOUTHERN NEW ENGLAND
 IN CT

CITY           SKY/WX    TMP DP  RH WIND       PRES   REMARKS
Bradley INTL   PTSUNNY   75  49  39 SW9       29.95F
Hartford       CLOUDY    77  50  38 W12       29.95S
Danbury        MOSUNNY   74  51  44 S7        29.99F
Wtrbury/Oxford PTSUNNY   75  46  35 SW9G16    30.00F
Bridgeport     CLOUDY    79  50  36 SW14      29.98F
Meriden        MOSUNNY   79  50  36 VRB7      29.96F
New Haven      MOSUNNY   75  52  43 SW9       29.98F
Chester        FAIR      75  52  43 SW9       29.99S
Groton           N/A     74  55  51 MISG      29.97F
Wilimantic     MOSUNNY   79  50  36 SW8       29.95F

 IN RI

CITY           SKY/WX    TMP DP  RH WIND       PRES   REMARKS
Providence     MOSUNNY   75  56  51 SE8       29.95F
Block Island   SUNNY     71  60  68 SW14G22   30.00F
Westerly       SUNNY     76  56  49 S12       30.00S
 IN MA

CITY           SKY/WX    TMP DP  RH WIND       PRES   REMARKS
Boston         MOSUNNY   78  48  34 W14       29.93F
Worcester        N/A     72  47  40 W9        29.97F
Westfield      PTSUNNY   78  51  38 SW7       29.95F
Provincetown   SUNNY     75  52  44 CALM      29.97F
Nantucket      SUNNY     69  61  75 SW14      30.00S
$$

ANZ330-335-338-340-345-350-353-355-262100-
COASTAL MARINE OBSERVATIONS


STATION/POSITION TIME  SKY/WX   TEMP    WIND        PRES    VSBY  WAVE
                                AIR SEA DIR/SP/G                  HT/PER
                 (UTC)          (F)     (DEG/KT/KT) (MB)    (MI)  (FT/S)
NY HARB ENTRANCE 1850            70 69  180/ 14/ 16 1016.4          1/ 6
20 S FIRE ISLAND 1950            70 71  210/ 14/ 16 1016.1          2/ 7
GREAT SOUTH BAY  1930            71 77  200/ 12/ 16   N/A
23 SSW MONTAUK P 1850            68 67              1016.9          2/ 7
15 E BARNEGAT LI 1930               67                N/A           2/ 7
HUDSON CANYON    1850            70 71  270/  6/  6 1017.3          2/ 8
KINGS POINT      1942            74 65  230/ 16/ 20 1015.1
EXECUTION ROCKS  1945            73     180/ 12/ 16   N/A
CENTRAL LI SOUND NOT AVBL
EASTERN LI SOUND NOT AVBL
ROBBINS REEF     1936                   150/ 20/ 25 1016.0
$$


>>>>>>>>>>>>>>>>>>>>>>>>>>>> KEY <<<<<<<<<<<<<<<<<<<<<<<<<<<
>                                                          <
>     SKY/WX - Sky Condition/Present Weather               <
>     TMP    - Temperature in Fahrenheit                   <
>     DP     - Dew Point in Fahrenheit                     <
>     RH     - Relative Humidity in Percent                <
>     WIND   - Direction (from) and Speed in MPH           <
>     PRES   - Mean Sea Level Pressure (inches of Hg)      <
>     WCI    - Wind Chill Index                            <
>     VSB    - VISIBILITY IN MILES                         <
>     HX     - HEAT INDEX                                  <
>     TC     - TEMPERATURE IN CELSIUS                      <
>     VRB    - VARIABLE WIND DIRECTION                     <
>                                                          <
>>>>>>>>>>>>>>>>>>>>>>>>>>>> KEY <<<<<<<<<<<<<<<<<<<<<<<<<<<



USA.gov is the U.S. government's official web portal to all federal, state and local government web resources and services.